Dillon, MT

2:23 AM MST on February 07, 2016 (GMT -0700)
Dillon

Weather History for KDLN - October, 2013

Change the Weather History Date:

Tuesday, October 29, 2013

  Actual Average Record
Temperature  
Mean Temperature 27 °F 39 °F  
Max Temperature 34 °F 51 °F 70 °F (1952)
Min Temperature 19 °F 27 °F -5 °F (1991)
Degree Days  
Heating Degree Days 38    
Month to date heating degree days 703  
Since 1 July heating degree days 950  
Cooling Degree Days 0    
Month to date cooling degree days 0  
Year to date cooling degree days 247  
Moisture  
Dew Point 18 °F    
Average Humidity 73    
Maximum Humidity 85    
Minimum Humidity 61    
Precipitation  
Precipitation T in 0.02 in 0.40 in (1959)
Month to date precipitation 0.01 0.72  
Year to date precipitation 9.47 9.89  
Snow  
Snow 0.00 in - - ()
Snow Depth T in    
Sea Level Pressure  
Sea Level Pressure 30.04 in    
Wind  
Wind Speed 5 mph (ESE)    
Max Wind Speed 17 mph    
Max Gust Speed 22 mph    
Visibility 10 miles    
Events Snow    
T = Trace of Precipitation, MM = Missing Value Source: NWS Daily Summary

Daily Weather History Graph

Daily Weather History Graph

Search for Another Location

Airport or City:

Trip Planner

Search our weather history database for the weather conditions in past years. The results will help you decide how hot, cold, wet, or windy it might be!

Date:

Astronomy

Oct. 29, 2013 Rise Set
Actual Time 8:05 AM MDT 6:21 PM MDT
Civil Twilight 7:34 AM MDT 6:52 PM MDT
Nautical Twilight 7:00 AM MDT 7:26 PM MDT
Astronomical Twilight 6:25 AM MDT 8:01 PM MDT
Moon 2:45 AM MDT (10/29) 3:49 PM MDT (10/29)
Length of Visible Light 11h 17m
Length of Day
10h 16m
Waning Crescent, 24% of the Moon is Illuminated
Oct 29
Waning Crescent
Nov 3
New
Nov 9
First Quarter
Nov 17
Full
Nov 25
Last Quarter

Hourly Weather History & Observations

Time (MDT) Temp. Windchill Dew Point Humidity Pressure Visibility Wind Dir Wind Speed Gust Speed Precip Events Conditions
12:53 AM 19.0 °F 6.1 °F 16.0 °F 88% 30.12 in 10.0 mi ENE 12.7 mph - N/A   Overcast
1:53 AM 19.9 °F 7.9 °F 16.0 °F 85% 30.11 in 10.0 mi ENE 11.5 mph - N/A   Overcast
2:53 AM 19.0 °F 8.2 °F 15.1 °F 85% 30.11 in 10.0 mi ENE 9.2 mph - N/A   Overcast
3:53 AM 19.0 °F 8.2 °F 15.1 °F 85% 30.12 in 10.0 mi NE 9.2 mph - N/A   Overcast
4:53 AM 19.0 °F 9.0 °F 15.1 °F 85% 30.11 in 10.0 mi ENE 8.1 mph - N/A   Overcast
5:53 AM 19.9 °F 13.4 °F 16.0 °F 85% 30.10 in 10.0 mi East 4.6 mph - 0.00 in   Overcast
6:23 AM 19.4 °F 12.8 °F 15.8 °F 86% 29.94 in 10.0 mi ENE 4.6 mph - N/A   Overcast
6:53 AM 19.9 °F 14.9 °F 15.1 °F 81% 30.09 in 10.0 mi SE 3.5 mph - N/A   Overcast
7:00 AM 19.4 °F 14.3 °F 15.8 °F 86% 29.94 in 9.0 mi SE 3.5 mph - 0.00 in Snow Light Snow
7:53 AM 19.9 °F - 16.0 °F 85% 30.09 in 10.0 mi Calm Calm - 0.00 in   Overcast
8:14 AM 19.4 °F - 15.8 °F 86% 29.95 in 10.0 mi Calm Calm - N/A   Overcast
8:53 AM 19.9 °F - 16.0 °F 85% 30.11 in 10.0 mi Calm Calm - N/A   Overcast
9:43 AM 21.2 °F 16.4 °F 15.8 °F 80% 29.96 in 10.0 mi ENE 3.5 mph - N/A   Overcast
9:53 AM 21.0 °F 16.2 °F 15.1 °F 78% 30.13 in 10.0 mi East 3.5 mph - N/A   Overcast
10:53 AM 21.9 °F - 16.0 °F 78% 30.12 in 10.0 mi Calm Calm - N/A   Overcast
11:13 AM 21.2 °F 14.9 °F 17.6 °F 86% 29.95 in 9.0 mi SSE 4.6 mph - 0.00 in Snow Light Snow
11:53 AM 24.1 °F 18.2 °F 18.0 °F 77% 30.09 in 9.0 mi SW 4.6 mph - 0.00 in Snow Light Snow
12:53 PM 25.0 °F 18.1 °F 18.0 °F 75% 30.09 in 9.0 mi SSE 5.8 mph - 0.00 in Snow Light Snow
1:53 PM 27.0 °F 23.0 °F 19.0 °F 72% 30.04 in 9.0 mi Variable 3.5 mph - 0.00 in Snow Light Snow
2:53 PM 30.0 °F 24.1 °F 19.9 °F 66% 30.00 in 10.0 mi SSE 5.8 mph - 0.00 in   Clear
3:53 PM 30.9 °F 27.5 °F 21.0 °F 67% 30.00 in 10.0 mi South 3.5 mph - N/A   Clear
4:53 PM 33.1 °F 28.7 °F 21.9 °F 64% 29.98 in 9.0 mi SE 4.6 mph - 0.00 in   Clear
5:53 PM 33.1 °F - 23.0 °F 66% 29.98 in 10.0 mi Calm Calm - N/A   Mostly Cloudy
6:53 PM 30.0 °F - 21.9 °F 72% 30.00 in 10.0 mi Calm Calm - N/A   Clear
7:53 PM 27.0 °F 21.6 °F 21.9 °F 81% 30.01 in 9.0 mi ESE 4.6 mph - 0.00 in   Overcast
8:53 PM 28.9 °F 25.2 °F 24.1 °F 82% 30.01 in 10.0 mi South 3.5 mph - N/A   Overcast
9:53 PM 28.9 °F 23.9 °F 23.0 °F 78% 30.00 in 10.0 mi South 4.6 mph - N/A   Overcast
10:53 PM 26.1 °F 18.4 °F 21.9 °F 84% 30.01 in 9.0 mi SSE 6.9 mph - 0.00 in Snow Light Snow
11:53 PM 24.1 °F 17.0 °F 21.0 °F 88% 30.00 in 10.0 mi SSW 5.8 mph - 0.00 in   Clear